Weather History for Haines, AK

Change the Weather History Date:

Tuesday, December 31, 2013

  Actual Average Record
Temperature  
Mean Temperature 22 °F -  
Max Temperature 25 °F 27 °F 44 °F (2000)
Min Temperature 19 °F 19 °F -12 °F (1984)
Degree Days  
Heating Degree Days 43    
Moisture  
Dew Point 19 °F    
Average Humidity 87    
Maximum Humidity 93    
Minimum Humidity 78    
Precipitation  
Precipitation 0.09 in - - ()
Sea Level Pressure  
Sea Level Pressure 29.96 in    
Wind  
Wind Speed 11 mph (WNW)    
Max Wind Speed 16 mph    
Max Gust Speed -    
Visibility 6 miles    
Events Snow    
Averages and records for this station are not official NWS values.
T = Trace of Precipitation, MM = Missing Value Source: NWS Daily Summary

Daily Weather History Graph

Daily Weather History Graph

Search for Another Location

Airport:

Trip Planner

Search our weather history database for the weather conditions in past years. The results will help you decide how hot, cold, wet, or windy it might be!

Date:

Astronomy

Dec. 31, 2013 Rise Set
Actual Time 8:57 AM AKST 3:13 PM AKST
Civil Twilight 8:03 AM AKST 4:07 PM AKST
Nautical Twilight 7:08 AM AKST 5:02 PM AKST
Astronomical Twilight 6:18 AM AKST 5:52 PM AKST
Moon 7:44 AM AKST (12/31) 3:12 PM AKST (12/31)
Length of Visible Light 8h 04m
Length of Day
6h 15m
Waning Crescent, 1% of the Moon is Illuminated
Dec 31
Waning Crescent
Jan 1
New
Jan 7
First Quarter
Jan 15
Full
Jan 23
Last Quarter

Hourly Weather History & Observations

Time (AKST) Temp. Windchill Dew Point Humidity Pressure Visibility Wind Dir Wind Speed Gust Speed Precip Events Conditions
12:11 AM 21.9 °F 14.5 °F 19.0 °F 89% 29.82 in 6.0 mi WNW 5.8 mph - 0.00 in Snow Light Snow
12:54 AM 21.9 °F 11.7 °F 19.0 °F 89% 29.83 in 4.0 mi WNW 9.2 mph - 0.00 in Snow Light Snow
1:27 AM 21.0 °F 9.9 °F 18.0 °F 88% 29.83 in 2.0 mi WNW 10.4 mph - 0.00 in Snow Light Snow
1:38 AM 21.9 °F 11.0 °F 19.0 °F 89% 29.83 in 1.8 mi West 10.4 mph - 0.00 in Snow Light Snow
1:49 AM 21.2 °F 11.7 °F 17.6 °F 86% 29.84 in 2.5 mi WNW 8.1 mph - 0.00 in Snow Light Snow
1:54 AM 21.0 °F 11.4 °F 18.0 °F 88% 29.85 in 3.0 mi WNW 8.1 mph - 0.00 in Snow Light Snow
2:07 AM 21.0 °F 9.3 °F 18.0 °F 88% 29.84 in 2.5 mi WNW 11.5 mph - 0.00 in Snow Light Snow
2:18 AM 21.0 °F 9.9 °F 18.0 °F 88% 29.84 in 3.0 mi WNW 10.4 mph - 0.00 in Snow Light Snow
2:38 AM 21.0 °F 8.1 °F 18.0 °F 88% 29.84 in 2.0 mi WNW 13.8 mph - 0.00 in Snow Light Snow
2:54 AM 21.0 °F 9.3 °F 18.0 °F 88% 29.86 in 3.0 mi WNW 11.5 mph - 0.00 in Snow Light Snow
3:16 AM 21.0 °F 7.6 °F 18.0 °F 88% 29.85 in 9.0 mi WNW 15.0 mph - 0.00 in   Overcast
3:54 AM 21.0 °F 8.1 °F 18.0 °F 88% 29.87 in 10.0 mi NW 13.8 mph - 0.00 in   Overcast
4:54 AM 21.9 °F 8.7 °F 18.0 °F 85% 29.89 in 10.0 mi WNW 15.0 mph - N/A   Overcast
5:03 AM 21.9 °F 9.2 °F 18.0 °F 85% 29.89 in 10.0 mi WNW 13.8 mph - N/A   Overcast
5:54 AM 21.9 °F 9.8 °F 18.0 °F 85% 29.93 in 10.0 mi WNW 12.7 mph - N/A   Overcast
6:54 AM 21.9 °F 10.4 °F 18.0 °F 85% 29.94 in 10.0 mi West 11.5 mph - N/A   Overcast
7:54 AM 21.9 °F 10.4 °F 18.0 °F 85% 29.96 in 10.0 mi WNW 11.5 mph - N/A   Overcast
8:54 AM 21.0 °F 7.1 °F 17.1 °F 85% 29.99 in 10.0 mi WNW 16.1 mph - N/A   Overcast
9:54 AM 19.9 °F 7.9 °F 17.1 °F 89% 30.02 in 2.0 mi WNW 11.5 mph - N/A   Overcast
10:05 AM 19.9 °F 7.3 °F 16.0 °F 85% 30.01 in 10.0 mi WNW 12.7 mph - N/A   Overcast
10:54 AM 21.0 °F 7.1 °F 17.1 °F 85% 30.04 in 10.0 mi West 16.1 mph - N/A   Overcast
11:54 AM 21.9 °F 8.7 °F 16.0 °F 78% 30.06 in 10.0 mi WNW 15.0 mph - N/A   Overcast
12:54 PM 21.0 °F 9.3 °F 17.1 °F 85% 30.06 in 10.0 mi WNW 11.5 mph - N/A   Overcast
1:54 PM 21.0 °F 8.1 °F 17.1 °F 85% 30.07 in 8.0 mi WNW 13.8 mph - N/A   Overcast
2:54 PM 21.0 °F 8.6 °F 18.0 °F 88% 30.06 in 10.0 mi WNW 12.7 mph - N/A   Overcast
3:07 PM 21.9 °F 11.0 °F 18.0 °F 85% 30.05 in 9.0 mi WNW 10.4 mph - N/A   Overcast
3:37 PM 23.0 °F 12.4 °F 19.0 °F 85% 30.05 in 10.0 mi WNW 10.4 mph - N/A   Overcast
3:54 PM 21.9 °F 10.4 °F 18.0 °F 85% 30.06 in 10.0 mi WNW 11.5 mph - N/A   Overcast
4:54 PM 21.9 °F 11.7 °F 18.0 °F 85% 30.06 in 10.0 mi WNW 9.2 mph - N/A   Overcast
5:54 PM 21.9 °F 11.7 °F 18.0 °F 85% 30.05 in 10.0 mi WNW 9.2 mph - N/A   Overcast
6:54 PM 21.9 °F 10.4 °F 18.0 °F 85% 30.04 in 9.0 mi WNW 11.5 mph - 0.00 in Snow Light Snow
7:19 PM 21.9 °F 9.8 °F 19.0 °F 89% 30.02 in 5.0 mi WNW 12.7 mph - 0.00 in Snow Light Snow
7:54 PM 23.0 °F 10.6 °F 19.9 °F 88% 30.02 in 3.0 mi WNW 13.8 mph - 0.01 in Snow Light Snow
8:03 PM 23.0 °F 11.1 °F 19.9 °F 88% 30.01 in 2.0 mi WNW 12.7 mph - 0.00 in Snow Light Snow
8:12 PM 21.9 °F 11.7 °F 19.0 °F 89% 30.00 in 1.8 mi WNW 9.2 mph - 0.00 in Snow Light Snow
8:23 PM 21.9 °F 12.5 °F 19.0 °F 89% 30.00 in 2.0 mi WNW 8.1 mph - 0.00 in Snow Light Snow
8:30 PM 21.9 °F 11.7 °F 19.9 °F 92% 30.00 in 1.8 mi WNW 9.2 mph - 0.00 in Snow Light Snow
8:45 PM 24.1 °F 12.5 °F 21.0 °F 88% 29.99 in 2.0 mi WNW 12.7 mph - 0.00 in Snow Light Snow
8:54 PM 25.0 °F 14.2 °F 21.9 °F 88% 29.99 in 2.0 mi WNW 11.5 mph - 0.00 in Snow Light Snow
9:07 PM 24.1 °F 13.7 °F 21.0 °F 88% 29.98 in 1.5 mi WNW 10.4 mph - 0.01 in Snow Light Snow
9:24 PM 24.1 °F 13.1 °F 21.0 °F 88% 29.97 in 1.2 mi WNW 11.5 mph - 0.01 in Snow Light Snow
9:54 PM 24.1 °F 13.7 °F 21.9 °F 91% 29.98 in 1.8 mi WNW 10.4 mph - 0.02 in Snow Light Snow
10:22 PM 25.0 °F 16.3 °F 21.9 °F 88% 29.96 in 1.5 mi WNW 8.1 mph - 0.01 in Snow Light Snow
10:54 PM 23.0 °F 14.7 °F 21.0 °F 92% 29.96 in 1.2 mi West 6.9 mph - 0.03 in Snow Light Snow
11:52 PM 21.2 °F 13.6 °F 19.4 °F 93% 29.93 in 2.0 mi WNW 5.8 mph - 0.03 in Snow Light Snow
11:54 PM 21.9 °F 14.5 °F 19.9 °F 92% 29.94 in 2.0 mi WNW 5.8 mph - 0.03 in Snow Light Snow